Location: Newark
(46.7000°N, 60.6000°W)
Time: 03:52:17
(UTC+00:00)

A-11 Canister half - Pass Details

Date: 29 October 2020
Orbit: 1525 x 1683 km, 47.3° (Epoch: 23 November)

Event Time Altitude Azimuth Distance (km) Brightness Sun altitude
Rises 02:29:27 0° 286° (WNW) 4,679 11.9 -53.2°
Enters shadow 02:34:05 10° 266° (W) 3,720 11.1 -53.6°
Reaches altitude 10° 02:34:15 10° 265° (W) 3,693 - -53.6°
Maximum altitude 02:38:49 15° 235° (SW) 3,325 - -54.0°
Drops below altitude 10° 02:43:24 10° 205° (SSW) 3,707 - -54.4°
Sets 02:48:18 0° 183° (S) 4,708 - -54.7°
